[[{"header":{"parameterUnit":"m.s-1","parameterCategory":2,"la1":30.2991,"la2":30.254,"lo1":-89.0895,"lo2":-89.0444,"dy":0.0017,"dx":0.0017,"nx":28,"ny":28,"refTime":"2025-05-26T03:00:00:Z","depth":"0","parameterNumber":2,"parameterNumberName":"U-component_of_CURRENTS"},"data":[0,0,0,0,0,0,0,0,0,0,0,0,0,0,0,0,0,0,0,0,0,0,0,0,0,0,0,0,0,0,0,0,0,0,0,0,0,0,0,0,0,0,0,0,0,0,0,0,0,0,0,0,0,0,0,0,0,0,-0.2564,-0.2564,0,-0.2537,-0.2536,-0.2534,-0.2449,-0.2448,-0.2447,-0.2447,-0.2281,-0.2277,-0.2274,0,0,0,0,0,0,0,0,0,0,0,0,0,-0.2201,-0.221,-0.2563,-0.2564,-0.2565,-0.2537,-0.2536,-0.2534,-0.2449,-0.2448,-0.2447,-0.2446,-0.2282,-0.2278,-0.2273,0,0,0,0,0,0,0,0,0,0,0,0,0,-0.2275,-0.2212,-0.2563,-0.2528,-0.2525,-0.2537,-0.2536,-0.2534,-0.2449,-0.2448,-0.2447,-0.2446,-0.2283,-0.2278,-0.2273,-0.2265,0,0,-0.2256,-0.2254,0,0,0,0,0,0,0,0,-0.2271,-0.2287,-0.2532,-0.253,-0.2527,-0.2505,-0.2348,-0.2441,-0.245,-0.2466,-0.2447,-0.2445,-0.2351,-0.234,-0.2324,-0.2257,-0.225,-0.2256,-0.2252,-0.225,-0.2249,0,0,0,0,0,0,0,-0.2267,-0.2286,-0.2541,-0.2533,-0.2531,-0.2397,-0.2408,-0.2363,-0.2405,-0.2465,-0.2461,-0.2477,-0.2347,-0.2329,-0.2319,-0.2247,-0.2256,-0.2251,-0.2248,-0.2246,-0.2152,-0.2153,0,0,0,0,0,0,-0.2315,-0.2285,-0.2542,-0.2542,-0.2406,-0.2407,-0.2418,-0.2504,-0.2408,-0.2397,-0.2478,-0.2473,-0.2339,-0.2325,-0.2313,-0.2258,-0.225,-0.2245,-0.2242,-0.2152,-0.2153,-0.2153,0,0,0,0,0,0,-0.2308,-0.2341,-0.2544,-0.2415,-0.2433,-0.2419,-0.2512,-0.2505,-0.249,-0.2422,-0.2405,-0.2474,-0.2338,-0.232,-0.2277,-0.2252,-0.2243,-0.2238,-0.2151,-0.2152,-0.2153,-0.2174,0,0,0,0,0,0,-0.2299,-0.234,-0.2381,-0.2422,-0.2443,-0.2566,-0.2515,-0.2505,-0.2507,-0.25,-0.2413,-0.2396,-0.2335,-0.2285,-0.2271,-0.2245,-0.2233,-0.215,-0.2151,-0.2153,-0.2172,-0.2175,-0.2178,0,0,0,0,0,-0.2287,-0.2337,-0.2385,-0.2413,-0.2517,-0.2569,-0.2566,-0.2537,-0.2509,-0.2514,-0.245,-0.2399,-0.2284,-0.2282,-0.2265,-0.2236,-0.2149,-0.2151,-0.2153,-0.2171,-0.2175,-0.2178,0,0,0,0,0,0,-0.2173,-0.2337,-0.2388,-0.2483,-0.2542,-0.2559,-0.2544,-0.255,-0.2505,-0.2482,-0.2408,-0.2387,-0.2335,-0.2302,-0.2302,-0.222,-0.2209,-0.2207,-0.2228,-0.2232,-0.2235,-0.2178,-0.2229,0,0,0,0,0,-0.219,-0.2271,-0.2406,-0.2462,-0.2513,-0.2538,-0.2543,-0.2553,-0.2538,-0.2516,-0.2463,-0.2397,-0.2331,-0.2297,-0.2244,-0.2205,-0.2163,-0.218,-0.2184,-0.2186,-0.2133,-0.2101,-0.2095,-0.2159,-0.2159,-0.2159,0,0,-0.2142,-0.2248,-0.2283,-0.2442,-0.2474,-0.2495,-0.2533,-0.2566,-0.2536,-0.2505,-0.2425,-0.2406,-0.2327,-0.2271,-0.2246,-0.2238,-0.2152,-0.2188,-0.2191,-0.2134,-0.2102,-0.2095,-0.2089,-0.216,-0.216,-0.216,0,0,-0.206,-0.2218,-0.2247,-0.2316,-0.2419,-0.2454,-0.248,-0.254,-0.253,-0.2504,-0.2453,-0.2422,-0.2343,-0.2274,-0.2225,-0.2219,-0.2172,-0.2228,-0.2185,-0.2157,-0.215,-0.2144,-0.2101,-0.209,-0.2228,-0.2228,-0.2228,0,-0.1998,-0.2095,-0.2245,-0.2283,-0.2317,-0.2438,-0.2446,-0.2452,-0.2469,-0.2459,-0.2476,-0.2364,-0.2318,-0.221,-0.2207,-0.2214,-0.2201,-0.2174,-0.2158,-0.215,-0.2143,-0.21,-0.2088,-0.2229,-0.2229,-0.2229,-0.2229,0,-0.1939,-0.2011,-0.2031,-0.2138,-0.2185,-0.2231,-0.2313,-0.234,-0.2366,-0.2366,-0.2328,-0.2297,-0.2228,-0.2229,-0.2199,-0.2131,-0.2141,-0.2169,-0.2141,-0.2137,-0.2094,-0.2081,-0.2231,-0.223,-0.223,-0.223,0,0,-0.1858,-0.1973,-0.1984,-0.202,-0.2141,-0.2186,-0.2168,-0.2216,-0.2208,-0.2223,-0.2187,-0.2106,-0.2144,-0.2092,-0.2094,-0.2066,-0.2022,-0.2098,-0.2097,-0.204,-0.1957,-0.1841,-0.1815,-0.207,-0.2067,-0.2065,-0.1954,0,-0.1783,-0.181,-0.1888,-0.1891,-0.1937,-0.205,-0.2029,-0.2069,-0.2114,-0.2115,-0.2105,-0.2073,-0.2075,-0.2086,-0.2047,-0.2041,-0.1985,-0.2047,-0.1979,-0.1974,-0.1859,-0.1794,-0.1644,-0.1521,-0.1941,-0.1939,-0.1937,0,-0.1739,-0.1772,-0.176,-0.1843,-0.1877,-0.1868,-0.1942,-0.1948,-0.1974,-0.2009,-0.1992,-0.2014,-0.1953,-0.1995,-0.1903,-0.1959,-0.1927,-0.1919,-0.1917,-0.1771,-0.1831,-0.159,-0.148,-0.1512,-0.1916,-0.1918,-0.1919,0,-0.1654,-0.1712,-0.1701,-0.1728,-0.1805,-0.1808,-0.1851,-0.1897,-0.1928,-0.1951,-0.1977,-0.193,-0.1913,-0.188,-0.1841,-0.1894,-0.1751,-0.1831,-0.1671,-0.1665,-0.1491,-0.1471,-0.1373,-0.1721,-0.1722,-0.1722,-0.1722,0,-0.1604,-0.1602,-0.1662,-0.1659,-0.1661,-0.1748,-0.1759,-0.1803,-0.1864,-0.183,-0.1915,-0.1844,-0.1888,-0.1826,-0.1808,-0.1663,-0.1711,-0.1602,-0.1604,-0.1498,-0.1481,-0.1464,-0.1534,-0.1718,-0.1719,-0.172,-0.172,0,-0.1504,-0.1547,-0.1538,-0.1591,-0.1616,-0.1613,-0.1714,-0.1719,-0.1807,-0.1769,-0.1777,-0.1781,-0.1664,-0.1687,-0.1608,-0.1585,-0.146,-0.1433,-0.1291,-0.1275,-0.1172,-0.1249,-0.1108,-0.1077,-0.125,-0.1246,-0.1243,0,-0.1456,-0.1432,-0.1459,-0.1438,-0.145,-0.149,-0.1506,-0.1649,-0.1659,-0.1651,-0.1595,-0.1527,-0.1317,-0.1207,-0.1203,-0.1136,-0.1232,-0.1007,-0.1049,-0.1077,-0.1167,-0.1252,-0.1246,-0.085,-0.0844,-0.0839,-0.0835,0,-0.133,-0.1321,-0.1298,-0.1256,-0.1257,-0.1287,-0.1326,-0.1345,-0.1433,-0.1391,-0.1194,-0.102,-0.0888,-0.0664,-0.0673,-0.0694,-0.0985,-0.0897,-0.096,-0.0829,-0.0877,-0.0879,-0.1034,-0.0789,-0.0794,-0.0797,-0.08,-0.0801,-0.1206,-0.1151,-0.11,-0.1052,-0.1051,-0.1021,-0.0977,-0.1005,-0.0958,-0.0812,-0.0756,-0.0428,-0.0223,-0.0157,-0.0285,-0.0455,-0.0571,-0.0477,-0.0563,-0.0646,-0.0602,-0.0631,-0.0378,-0.038,-0.0382,-0.0383,-0.0385,0,-0.1052,-0.0983,-0.0905,-0.0831,-0.0745,-0.0822,-0.0801,-0.0713,-0.0539,-0.039,-0.0168,0.0217,0.0394,0.0294,0.0143,-0.0048,-0.0225,-0.0213,-0.032,-0.0329,-0.0352,-0.032,0.0001,0.0001,0.0001,0.0001,0.0001,0.0001,-0.0955,-0.082,-0.0772,-0.0558,-0.0498,-0.0368,-0.0313,-0.0179,-0.0063,0.0281,0.0502,0.0637,0.0673,0.051,0.0202,0.0047,-0.0129,-0.0148,-0.0287,-0.0345,-0.0379,-0.0411,-0.0396,-0.0096,-0.0097,-0.0185,-0.0186,-0.0187]},{"header":{"parameterUnit":"m.s-1","parameterCategory":2,"la1":30.2991,"la2":30.254,"lo1":-89.0895,"lo2":-89.0444,"dy":0.0017,"dx":0.0017,"nx":28,"ny":28,"refTime":"2025-05-26T03:00:00:Z","depth":"0","parameterNumber":3,"parameterNumberName":"V-component_of_CURRENTS"},"data":[0,0,0,0,0,0,0,0,0,0,0,0,0,0,0,0,0,0,0,0,0,0,0,0,0,0,0,0,0,0,0,0,0,0,0,0,0,0,0,0,0,0,0,0,0,0,0,0,0,0,0,0,0,0,0,0,0,0,-0.0148,-0.0148,0,-0.0113,-0.0112,-0.0112,-0.0076,-0.0075,-0.0075,-0.0074,0.0023,0.0025,0.0027,0,0,0,0,0,0,0,0,0,0,0,0,0,-0.0268,-0.0266,-0.0148,-0.0148,-0.0147,-0.0113,-0.0112,-0.0112,-0.0076,-0.0075,-0.0074,-0.0074,0.0022,0.0025,0.0027,0,0,0,0,0,0,0,0,0,0,0,0,0,-0.0224,-0.0265,-0.0149,-0.0124,-0.0122,-0.0113,-0.0112,-0.0112,-0.0076,-0.0075,-0.0074,-0.0073,0.0021,0.0024,0.0027,0.0029,0,0,0.0037,0.0038,0,0,0,0,0,0,0,0,-0.0226,-0.0219,-0.0129,-0.0126,-0.0123,-0.0097,-0.0119,-0.0061,-0.0076,-0.0094,-0.0074,-0.0073,-0.0011,-0.0006,-0.0003,0.0033,0.0038,0.0037,0.0039,0.004,0.0041,0,0,0,0,0,0,0,-0.0229,-0.0221,-0.0135,-0.0128,-0.0125,-0.0144,-0.0136,-0.0109,-0.0058,-0.0093,-0.009,-0.0085,-0.001,-0.0006,-0.0,0.0039,0.0037,0.004,0.0042,0.0043,0.0182,0.0183,0,0,0,0,0,0,-0.0228,-0.0223,-0.0136,-0.0134,-0.0172,-0.0142,-0.0133,-0.0107,-0.0059,-0.0052,-0.0085,-0.0083,-0.0012,-0.0004,0.0003,0.0044,0.004,0.0043,0.0045,0.018,0.0182,0.0184,0,0,0,0,0,0,-0.023,-0.0219,-0.0138,-0.0179,-0.017,-0.014,-0.0112,-0.0107,-0.01,-0.0054,-0.0045,-0.0083,-0.0011,-0.0001,0.0039,0.0047,0.0044,0.0047,0.0178,0.018,0.0183,0.0102,0,0,0,0,0,0,-0.0233,-0.022,-0.0217,-0.0178,-0.0167,-0.013,-0.0112,-0.0107,-0.0098,-0.0094,-0.005,-0.004,-0.001,0.0035,0.0042,0.0051,0.005,0.0175,0.0179,0.0182,0.0103,0.0102,0.0102,0,0,0,0,0,-0.0237,-0.0248,-0.0216,-0.0207,-0.0157,-0.013,-0.0127,-0.0105,-0.0099,-0.0096,-0.0059,-0.0041,0.0064,0.0037,0.0047,0.0056,0.0174,0.0178,0.0182,0.0103,0.0102,0.0102,0,0,0,0,0,0,-0.0311,-0.0244,-0.0208,-0.0199,-0.0159,-0.0123,-0.0134,-0.011,-0.0082,-0.008,-0.0035,-0.0023,0.0028,0.0058,0.0028,0.0116,0.0129,0.0135,0.0066,0.0066,0.0065,0.0028,0.0052,0,0,0,0,0,-0.0319,-0.0306,-0.0235,-0.0233,-0.021,-0.0169,-0.0162,-0.0136,-0.0102,-0.0091,-0.0054,-0.0003,0.0051,0.0068,0.0122,0.0145,0.0176,0.0169,0.0168,0.0167,0.0149,0.0201,0.0202,0.0198,0.0198,0.0198,0,0,-0.0351,-0.0314,-0.0307,-0.0248,-0.022,-0.0203,-0.0163,-0.0149,-0.014,-0.0084,-0.0068,-0.0004,0.0063,0.0106,0.013,0.0125,0.0191,0.0172,0.017,0.0152,0.0206,0.0205,0.0205,0.0201,0.02,0.02,0,0,-0.0411,-0.0364,-0.0365,-0.0332,-0.0282,-0.0247,-0.024,-0.0186,-0.0164,-0.0129,-0.0073,-0.0012,0.0053,0.0101,0.0134,0.0163,0.0196,0.0195,0.0139,0.0191,0.019,0.019,0.0238,0.0243,0.018,0.018,0.018,0,-0.0448,-0.0428,-0.0367,-0.036,-0.0344,-0.0267,-0.0264,-0.0233,-0.0177,-0.0154,-0.0127,-0.0008,0.005,0.01,0.0118,0.0156,0.0188,0.0124,0.0184,0.0184,0.0185,0.0235,0.0241,0.0176,0.0177,0.0177,0.0177,0,-0.0494,-0.0482,-0.0486,-0.0437,-0.0415,-0.0403,-0.0334,-0.0308,-0.0261,-0.0216,-0.0143,-0.006,0.0009,0.0051,0.0087,0.0132,0.0155,0.0182,0.0167,0.0179,0.0234,0.0241,0.0172,0.0173,0.0174,0.0175,0,0,-0.0541,-0.052,-0.0516,-0.051,-0.0449,-0.0434,-0.0415,-0.0358,-0.0334,-0.0267,-0.0232,-0.0132,-0.0076,-0.0033,0.0034,0.0072,0.012,0.0115,0.0119,0.0131,0.0228,0.028,0.0294,0.0147,0.0148,0.0148,0.0264,0,-0.0581,-0.0601,-0.057,-0.0582,-0.0575,-0.0511,-0.0497,-0.0443,-0.0371,-0.0316,-0.0227,-0.0152,-0.0112,-0.0061,-0.0024,0.0109,0.0135,0.0086,0.0243,0.0247,0.0265,0.0303,0.0422,0.0538,0.0271,0.0273,0.0274,0,-0.0607,-0.0619,-0.0644,-0.0637,-0.0625,-0.0624,-0.0568,-0.0542,-0.0449,-0.0392,-0.0322,-0.0228,-0.0143,-0.0106,0.0049,0.0014,0.0098,0.0181,0.0188,0.0264,0.0314,0.0487,0.0562,0.0579,0.0286,0.0285,0.0284,0,-0.0645,-0.066,-0.0687,-0.0684,-0.0663,-0.0666,-0.0647,-0.0567,-0.0526,-0.0432,-0.0352,-0.0272,-0.0154,-0.0086,0.0098,0.0073,0.0276,0.0271,0.0383,0.0389,0.0534,0.0551,0.0616,0.0347,0.0347,0.0346,0.0346,0,-0.0672,-0.0684,-0.0715,-0.0723,-0.0755,-0.0718,-0.0711,-0.0668,-0.0582,-0.0471,-0.0392,-0.0241,-0.0135,0.0015,0.0091,0.0282,0.0273,0.0378,0.0424,0.0514,0.0526,0.0584,0.0571,0.0351,0.035,0.0349,0.0348,0,-0.0673,-0.0695,-0.0734,-0.0759,-0.0771,-0.079,-0.0767,-0.0731,-0.0635,-0.048,-0.0436,-0.0203,0.0033,0.0127,0.0316,0.0345,0.0532,0.0528,0.0624,0.0677,0.0756,0.0736,0.0857,0.0941,0.0647,0.0649,0.0651,0,-0.0659,-0.0686,-0.0771,-0.0798,-0.0809,-0.0836,-0.0828,-0.078,-0.0699,-0.0393,-0.0287,-0.0019,0.0265,0.0513,0.0578,0.0681,0.0699,0.0817,0.0778,0.0778,0.079,0.0762,0.0821,0.0952,0.0956,0.096,0.0962,0,-0.0624,-0.0673,-0.071,-0.0789,-0.0819,-0.0847,-0.0811,-0.0761,-0.0591,-0.0399,-0.0017,0.0243,0.056,0.0821,0.0909,0.0944,0.0874,0.0886,0.0884,0.1024,0.1006,0.1105,0.0841,0.0992,0.0989,0.0986,0.0985,0.0984,-0.0579,-0.0619,-0.0679,-0.0739,-0.0781,-0.0768,-0.0723,-0.0612,-0.0432,-0.0025,0.0176,0.0637,0.0965,0.1154,0.1139,0.1156,0.112,0.1209,0.1184,0.1153,0.1231,0.1013,0.1207,0.1206,0.1204,0.1203,0.1202,0,-0.0472,-0.0529,-0.06,-0.0649,-0.064,-0.0698,-0.0617,-0.0484,-0.0188,0.0147,0.0524,0.1056,0.1322,0.1442,0.1502,0.1473,0.143,0.1473,0.1466,0.1514,0.1343,0.1351,0.159,0.159,0.159,0.159,0.159,0.159,-0.0409,-0.0434,-0.0488,-0.046,-0.0482,-0.0399,-0.0325,-0.0123,0.0109,0.0653,0.1043,0.1336,0.1594,0.163,0.1649,0.1649,0.165,0.1672,0.1643,0.1502,0.1475,0.1448,0.1452,0.1708,0.1708,0.1885,0.1886,0.1887]}],[{"header":{"parameterUnit":"m.s-1","parameterCategory":2,"la1":30.2991,"la2":30.254,"lo1":-89.0895,"lo2":-89.0444,"dy":0.0017,"dx":0.0017,"nx":28,"ny":28,"refTime":"2025-05-26T03:00:00:Z","depth":"2","parameterNumber":2,"parameterNumberName":"U-component_of_CURRENTS"},"data":[0,0,0,0,0,0,0,0,0,0,0,0,0,0,0,0,0,0,0,0,0,0,0,0,0,0,0,0,0,0,0,0,0,0,0,0,0,0,0,0,0,0,0,0,0,0,0,0,0,0,0,0,0,0,0,0,0,0,-0.1734,-0.1734,0,-0.1791,-0.1792,-0.1793,-0.1812,-0.1812,-0.1812,-0.1811,-0.1955,-0.1959,-0.1963,0,0,0,0,0,0,0,0,0,0,0,0,0,-0.1741,-0.174,-0.1734,-0.1734,-0.1735,-0.1791,-0.1792,-0.1793,-0.1812,-0.1812,-0.1811,-0.1811,-0.1954,-0.1959,-0.1964,0,0,0,0,0,0,0,0,0,0,0,0,0,-0.1764,-0.174,-0.1734,-0.175,-0.1752,-0.1791,-0.1792,-0.1794,-0.1813,-0.1812,-0.1811,-0.1811,-0.1952,-0.1958,-0.1964,-0.2016,0,0,-0.1984,-0.1986,0,0,0,0,0,0,0,0,-0.1762,-0.1764,-0.1747,-0.1749,-0.1751,-0.1792,-0.1848,-0.1872,-0.1813,-0.1792,-0.1811,-0.181,-0.1908,-0.1918,-0.1931,-0.2023,-0.2029,-0.1984,-0.1988,-0.1991,-0.1993,0,0,0,0,0,0,0,-0.1761,-0.1762,-0.1759,-0.1747,-0.175,-0.1789,-0.179,-0.1853,-0.1856,-0.1793,-0.1794,-0.1798,-0.191,-0.1925,-0.1935,-0.2031,-0.1984,-0.199,-0.1994,-0.1996,-0.2131,-0.2131,0,0,0,0,0,0,-0.1745,-0.176,-0.1757,-0.176,-0.1753,-0.1788,-0.1791,-0.1781,-0.1853,-0.1862,-0.1798,-0.1799,-0.1915,-0.1928,-0.194,-0.1962,-0.1991,-0.1997,-0.2,-0.2131,-0.2131,-0.213,0,0,0,0,0,0,-0.1745,-0.1744,-0.1754,-0.1761,-0.1765,-0.1788,-0.1778,-0.1783,-0.1807,-0.1856,-0.1867,-0.1818,-0.1915,-0.1932,-0.1987,-0.197,-0.1999,-0.2005,-0.2131,-0.2131,-0.2131,-0.2035,0,0,0,0,0,0,-0.1744,-0.1743,-0.1747,-0.1759,-0.1763,-0.1774,-0.1779,-0.1784,-0.1808,-0.181,-0.1877,-0.1888,-0.1916,-0.1977,-0.1993,-0.1979,-0.201,-0.2132,-0.2131,-0.2131,-0.2038,-0.2031,-0.2025,0,0,0,0,0,-0.1744,-0.1761,-0.1747,-0.1747,-0.1762,-0.1774,-0.178,-0.1797,-0.181,-0.1818,-0.1857,-0.1887,-0.1985,-0.1982,-0.2001,-0.1988,-0.2132,-0.2131,-0.2131,-0.2041,-0.2032,-0.2025,0,0,0,0,0,0,-0.1767,-0.1764,-0.1749,-0.1761,-0.1759,-0.1776,-0.1798,-0.1806,-0.1845,-0.1856,-0.1899,-0.1913,-0.1936,-0.1993,-0.1989,-0.2026,-0.2059,-0.2062,-0.1984,-0.1977,-0.197,-0.1969,-0.2015,0,0,0,0,0,-0.177,-0.1777,-0.1768,-0.1775,-0.1776,-0.1787,-0.1802,-0.1807,-0.1835,-0.1851,-0.1891,-0.1934,-0.195,-0.1988,-0.2013,-0.2067,-0.2077,-0.2068,-0.2061,-0.2055,-0.2067,-0.2055,-0.2048,-0.2129,-0.2129,-0.2129,0,0,-0.1776,-0.1779,-0.178,-0.178,-0.1786,-0.1789,-0.1796,-0.1816,-0.1818,-0.1866,-0.1899,-0.191,-0.1954,-0.1973,-0.1993,-0.2025,-0.2032,-0.2055,-0.2049,-0.2065,-0.2054,-0.2045,-0.2038,-0.2129,-0.2129,-0.2129,0,0,-0.1787,-0.1794,-0.1795,-0.1801,-0.1806,-0.1811,-0.1815,-0.183,-0.1835,-0.1862,-0.187,-0.1873,-0.1946,-0.1944,-0.1958,-0.1948,-0.1978,-0.1965,-0.1958,-0.1944,-0.1937,-0.1931,-0.1899,-0.1891,-0.1985,-0.1985,-0.1984,0,-0.1787,-0.1786,-0.1798,-0.1803,-0.1811,-0.1818,-0.1817,-0.1828,-0.1856,-0.1863,-0.1865,-0.19,-0.192,-0.1925,-0.1903,-0.1928,-0.1932,-0.1976,-0.1932,-0.1927,-0.1922,-0.1892,-0.1884,-0.198,-0.198,-0.1981,-0.1981,0,-0.1785,-0.1794,-0.1803,-0.18,-0.1815,-0.1823,-0.1825,-0.1841,-0.1849,-0.185,-0.185,-0.1856,-0.1882,-0.1869,-0.1884,-0.1864,-0.1877,-0.19,-0.1944,-0.1908,-0.1878,-0.1872,-0.1973,-0.1975,-0.1976,-0.1977,0,0,-0.1741,-0.1786,-0.1786,-0.1792,-0.1816,-0.1822,-0.1837,-0.1839,-0.1851,-0.185,-0.1852,-0.1832,-0.1835,-0.1851,-0.1855,-0.1842,-0.1775,-0.1866,-0.1867,-0.182,-0.1738,-0.1648,-0.1633,-0.1797,-0.1796,-0.1796,-0.1717,0,-0.1719,-0.1733,-0.1763,-0.1776,-0.1783,-0.1813,-0.1826,-0.1841,-0.185,-0.1859,-0.184,-0.1841,-0.1831,-0.1833,-0.1812,-0.1793,-0.1761,-0.1794,-0.1796,-0.1795,-0.1708,-0.1624,-0.1516,-0.1429,-0.1711,-0.171,-0.171,0,-0.1689,-0.1709,-0.1717,-0.1767,-0.1772,-0.1782,-0.1814,-0.1828,-0.1848,-0.1858,-0.1859,-0.186,-0.1831,-0.1824,-0.1768,-0.1798,-0.1761,-0.1735,-0.1732,-0.1686,-0.1694,-0.1521,-0.1408,-0.1699,-0.17,-0.1701,-0.1702,0,-0.164,-0.1677,-0.1684,-0.1699,-0.1751,-0.1762,-0.1786,-0.182,-0.1834,-0.1857,-0.1867,-0.1853,-0.1835,-0.1801,-0.174,-0.1765,-0.1667,-0.1699,-0.1575,-0.1569,-0.1496,-0.1483,-0.1642,-0.1642,-0.1642,-0.1642,-0.1642,0,-0.1604,-0.1611,-0.1663,-0.1667,-0.1681,-0.1733,-0.175,-0.1781,-0.1817,-0.1822,-0.1858,-0.1854,-0.1831,-0.1781,-0.1735,-0.1617,-0.166,-0.1547,-0.1535,-0.1455,-0.1441,-0.1712,-0.1721,-0.1639,-0.164,-0.164,-0.1641,0,-0.1546,-0.1579,-0.1594,-0.1644,-0.1658,-0.1666,-0.1723,-0.1732,-0.1787,-0.1794,-0.1801,-0.1837,-0.1771,-0.1718,-0.1644,-0.1589,-0.1503,-0.1449,-0.1342,-0.1317,-0.1418,-0.1423,-0.1312,-0.1308,-0.1304,-0.1301,-0.1299,0,-0.1515,-0.1517,-0.1561,-0.1563,-0.1581,-0.1609,-0.1622,-0.1695,-0.1705,-0.1773,-0.1757,-0.1736,-0.1703,-0.1562,-0.1434,-0.1305,-0.1383,-0.1145,-0.1161,-0.1381,-0.138,-0.1392,-0.1401,-0.1019,-0.1014,-0.1011,-0.1008,0,-0.1453,-0.1469,-0.1478,-0.1484,-0.1493,-0.151,-0.1534,-0.1542,-0.1615,-0.1634,-0.1658,-0.1658,-0.1541,-0.1378,-0.1203,-0.111,-0.116,-0.1065,-0.1312,-0.1119,-0.1098,-0.1101,-0.1121,-0.0975,-0.0978,-0.0981,-0.0983,-0.0984,-0.1396,-0.1384,-0.1391,-0.1388,-0.1399,-0.1384,-0.1365,-0.1391,-0.1396,-0.1384,-0.1485,-0.1415,-0.1408,-0.1068,-0.096,-0.0814,-0.091,-0.0868,-0.0883,-0.09,-0.088,-0.0854,-0.0681,-0.0682,-0.0684,-0.0685,-0.0686,0,-0.1314,-0.1304,-0.1295,-0.1271,-0.1229,-0.128,-0.1281,-0.1236,-0.1194,-0.1189,-0.1195,-0.1032,-0.0918,-0.0864,-0.0614,-0.0564,-0.0567,-0.0513,-0.0566,-0.0597,-0.0625,-0.0595,-0.0318,-0.0317,-0.0316,-0.0315,0,0,-0.1267,-0.1222,-0.1213,-0.1105,-0.1087,-0.1009,-0.0993,-0.0947,-0.092,-0.0833,-0.0768,-0.084,-0.0859,-0.0618,-0.0556,-0.0418,-0.0496,-0.035,-0.0644,-0.074,-0.0768,-0.0822,-0.0808,0,0,0,0,0]},{"header":{"parameterUnit":"m.s-1","parameterCategory":2,"la1":30.2991,"la2":30.254,"lo1":-89.0895,"lo2":-89.0444,"dy":0.0017,"dx":0.0017,"nx":28,"ny":28,"refTime":"2025-05-26T03:00:00:Z","depth":"2","parameterNumber":3,"parameterNumberName":"V-component_of_CURRENTS"},"data":[0,0,0,0,0,0,0,0,0,0,0,0,0,0,0,0,0,0,0,0,0,0,0,0,0,0,0,0,0,0,0,0,0,0,0,0,0,0,0,0,0,0,0,0,0,0,0,0,0,0,0,0,0,0,0,0,0,0,-0.0419,-0.0419,0,-0.0366,-0.0365,-0.0365,-0.0323,-0.0322,-0.0322,-0.0322,-0.0207,-0.0204,-0.0201,0,0,0,0,0,0,0,0,0,0,0,0,0,-0.0426,-0.0426,-0.0419,-0.0419,-0.0418,-0.0366,-0.0365,-0.0365,-0.0323,-0.0322,-0.0322,-0.0321,-0.0207,-0.0204,-0.0201,0,0,0,0,0,0,0,0,0,0,0,0,0,-0.0403,-0.0426,-0.0419,-0.0391,-0.0388,-0.0366,-0.0365,-0.0364,-0.0323,-0.0322,-0.0322,-0.0321,-0.0208,-0.0205,-0.02,-0.0187,0,0,-0.0188,-0.0186,0,0,0,0,0,0,0,0,-0.0404,-0.0402,-0.0396,-0.0393,-0.039,-0.0351,-0.0325,-0.0302,-0.0323,-0.0347,-0.0322,-0.0321,-0.025,-0.0242,-0.0234,-0.0181,-0.0176,-0.0188,-0.0185,-0.0183,-0.0182,0,0,0,0,0,0,0,-0.0406,-0.0404,-0.0398,-0.0395,-0.0391,-0.0361,-0.0358,-0.0321,-0.0301,-0.0345,-0.0342,-0.0337,-0.0247,-0.0238,-0.0231,-0.0175,-0.0188,-0.0184,-0.0182,-0.018,-0.0081,-0.0081,0,0,0,0,0,0,-0.0417,-0.0406,-0.0399,-0.0396,-0.0396,-0.0362,-0.0358,-0.0364,-0.0302,-0.0293,-0.0338,-0.0335,-0.0245,-0.0235,-0.0226,-0.0193,-0.0184,-0.018,-0.0177,-0.0081,-0.0081,-0.0081,0,0,0,0,0,0,-0.0418,-0.0417,-0.0402,-0.0399,-0.0395,-0.0363,-0.0369,-0.0363,-0.0353,-0.0297,-0.0287,-0.0334,-0.0244,-0.0232,-0.0195,-0.0189,-0.0178,-0.0174,-0.0082,-0.0081,-0.0081,-0.0135,0,0,0,0,0,0,-0.0418,-0.0418,-0.0422,-0.0401,-0.0396,-0.0394,-0.0369,-0.0362,-0.0351,-0.0347,-0.0291,-0.028,-0.0243,-0.0202,-0.0191,-0.0183,-0.0171,-0.0082,-0.0082,-0.0081,-0.0134,-0.0137,-0.014,0,0,0,0,0,-0.0419,-0.0429,-0.0423,-0.0422,-0.0404,-0.0394,-0.0389,-0.0363,-0.0351,-0.0351,-0.0312,-0.0281,-0.0192,-0.0199,-0.0186,-0.0177,-0.0082,-0.0082,-0.0081,-0.0132,-0.0136,-0.014,0,0,0,0,0,0,-0.044,-0.0425,-0.0418,-0.0425,-0.0413,-0.0387,-0.0383,-0.0368,-0.0339,-0.0334,-0.0282,-0.0268,-0.024,-0.0199,-0.0208,-0.0147,-0.0131,-0.0128,-0.0174,-0.0177,-0.018,-0.0172,-0.0168,0,0,0,0,0,-0.0446,-0.045,-0.0432,-0.044,-0.0434,-0.041,-0.0402,-0.0389,-0.0362,-0.0349,-0.0308,-0.0263,-0.0229,-0.0197,-0.0167,-0.0126,-0.0088,-0.0111,-0.0114,-0.0117,-0.0101,-0.0051,-0.0048,-0.008,-0.008,-0.008,0,0,-0.046,-0.0451,-0.0454,-0.0444,-0.0431,-0.0422,-0.0404,-0.04,-0.0385,-0.034,-0.0307,-0.0282,-0.0227,-0.0192,-0.0173,-0.0152,-0.009,-0.0116,-0.0119,-0.0102,-0.005,-0.0047,-0.0044,-0.0079,-0.0079,-0.008,0,0,-0.0486,-0.0479,-0.0487,-0.0474,-0.0459,-0.044,-0.0441,-0.0418,-0.0399,-0.0372,-0.034,-0.0305,-0.0248,-0.0202,-0.0173,-0.0168,-0.0124,-0.0164,-0.015,-0.0102,-0.0099,-0.0096,-0.0059,-0.0052,-0.0146,-0.0146,-0.0146,0,-0.0502,-0.0508,-0.0488,-0.0486,-0.0476,-0.0449,-0.0452,-0.0426,-0.0392,-0.0372,-0.0367,-0.0287,-0.0247,-0.0189,-0.0187,-0.0173,-0.0145,-0.0146,-0.0107,-0.0102,-0.0098,-0.0061,-0.0052,-0.0148,-0.0148,-0.0148,-0.0147,0,-0.0528,-0.0528,-0.0532,-0.0516,-0.0502,-0.0504,-0.0466,-0.0448,-0.0424,-0.0393,-0.035,-0.03,-0.0244,-0.0231,-0.0204,-0.0152,-0.0145,-0.0136,-0.0101,-0.0098,-0.0059,-0.0049,-0.0152,-0.0151,-0.015,-0.015,0,0,-0.0574,-0.0557,-0.0556,-0.0554,-0.052,-0.0516,-0.0483,-0.0448,-0.0425,-0.0383,-0.0346,-0.0287,-0.0262,-0.0225,-0.019,-0.0136,-0.0091,-0.012,-0.0116,-0.0089,0.0006,0.0017,0.0029,-0.0081,-0.0079,-0.0078,0.0015,0,-0.0602,-0.0614,-0.0588,-0.0588,-0.0589,-0.0545,-0.0519,-0.0478,-0.0434,-0.0388,-0.0323,-0.0283,-0.0257,-0.0237,-0.018,-0.0118,-0.0065,-0.0117,0.0006,0.001,0.0015,0.0041,0.0008,0.0089,0.0025,0.0027,0.0028,0,-0.0628,-0.0632,-0.0646,-0.0626,-0.0622,-0.0613,-0.0565,-0.0538,-0.0456,-0.0422,-0.0357,-0.0306,-0.022,-0.0209,-0.0077,-0.0116,-0.0055,-0.0004,0.0001,0.0043,0.004,0.0081,0.011,0.0045,0.0044,0.0042,0.0041,0,-0.0671,-0.0667,-0.0683,-0.0676,-0.0648,-0.0642,-0.0623,-0.0553,-0.0527,-0.044,-0.041,-0.0305,-0.0253,-0.0159,-0.0046,-0.0062,0.0094,0.0085,0.0155,0.0155,0.0172,0.0172,0.0181,0.0181,0.0181,0.0181,0.018,0,-0.0706,-0.0715,-0.0709,-0.0718,-0.0729,-0.0691,-0.0681,-0.0638,-0.0576,-0.0544,-0.0438,-0.0382,-0.0238,-0.013,-0.0041,0.0095,0.0103,0.0171,0.019,0.015,0.0146,0.0146,0.0141,0.0184,0.0183,0.0183,0.0182,0,-0.0745,-0.0743,-0.076,-0.0752,-0.0752,-0.076,-0.0736,-0.0721,-0.0655,-0.0608,-0.0583,-0.0429,-0.0273,-0.0127,0.0043,0.0104,0.0228,0.0271,0.0211,0.0221,0.0251,0.0242,0.0357,0.0359,0.036,0.0361,0.0362,0,-0.0767,-0.0783,-0.0795,-0.0811,-0.0813,-0.0819,-0.082,-0.0769,-0.0747,-0.0636,-0.0613,-0.0443,-0.0301,-0.0038,0.0112,0.0288,0.0287,0.0333,0.0304,0.0268,0.0274,0.0263,0.0253,0.0299,0.0299,0.0299,0.0299,0,-0.0805,-0.081,-0.0827,-0.0864,-0.0881,-0.0892,-0.0889,-0.0881,-0.0814,-0.0756,-0.0629,-0.0501,-0.0229,-0.0019,0.02,0.029,0.0302,0.0342,0.0344,0.0253,0.0219,0.0222,0.0213,0.0301,0.0301,0.0301,0.0301,0.0301,-0.0831,-0.0855,-0.0881,-0.0914,-0.0937,-0.0952,-0.0959,-0.0924,-0.0884,-0.0757,-0.0655,-0.0426,-0.0262,0.0097,0.0227,0.0363,0.0358,0.0368,0.0365,0.0363,0.0333,0.0303,0.0394,0.0395,0.0395,0.0395,0.0395,0,-0.0864,-0.089,-0.0926,-0.0966,-0.1001,-0.1,-0.0993,-0.0972,-0.0913,-0.0717,-0.0573,-0.0364,-0.0132,0.0086,0.029,0.0377,0.0366,0.0397,0.0348,0.0345,0.0343,0.031,0.0367,0.0368,0.0368,0.0369,0,0,-0.0884,-0.093,-0.0949,-0.1012,-0.1042,-0.1081,-0.1077,-0.0999,-0.0853,-0.0646,-0.0444,-0.0265,-0.0047,0.0065,0.0172,0.0299,0.031,0.0316,0.0325,0.0252,0.025,0.0309,0.0253,0,0,0,0,0]}],[{"header":{"parameterUnit":"m.s-1","parameterCategory":2,"la1":30.2991,"la2":30.254,"lo1":-89.0895,"lo2":-89.0444,"dy":0.0017,"dx":0.0017,"nx":28,"ny":28,"refTime":"2025-05-26T03:00:00:Z","depth":"4","parameterNumber":2,"parameterNumberName":"U-component_of_CURRENTS"},"data":[0,0,0,0,0,0,0,0,0,0,0,0,0,0,0,0,0,0,0,0,0,0,0,0,0,0,0,0,0,0,0,0,0,0,0,0,0,0,0,0,0,0,0,0,0,0,0,0,0,0,0,0,0,0,0,0,0,0,-0.1239,-0.1239,0,-0.1255,-0.1255,-0.1255,-0.1265,-0.1265,-0.1265,-0.1265,-0.129,-0.1291,-0.1291,0,0,0,0,0,0,0,0,0,0,0,0,0,-0.1252,-0.1252,-0.1239,-0.1239,-0.1239,-0.1255,-0.1255,-0.1255,-0.1265,-0.1265,-0.1265,-0.1265,-0.129,-0.129,-0.1291,0,0,0,0,0,0,0,0,0,0,0,0,0,-0.1255,-0.1252,-0.1239,-0.1246,-0.1247,-0.1255,-0.1255,-0.1255,-0.1265,-0.1265,-0.1265,-0.1265,-0.1289,-0.129,-0.1291,-0.1296,0,0,-0.1294,-0.1295,0,0,0,0,0,0,0,0,-0.1255,-0.1255,-0.1245,-0.1245,-0.1246,-0.1258,-0.1269,-0.1269,-0.1265,-0.1258,-0.1265,-0.1265,-0.128,-0.1282,-0.1285,-0.1297,-0.1298,-0.1294,-0.1295,-0.1295,-0.1295,0,0,0,0,0,0,0,-0.1255,-0.1254,-0.1245,-0.1245,-0.1246,-0.126,-0.1261,-0.1269,-0.1269,-0.1259,-0.1259,-0.1261,-0.128,-0.1284,-0.1285,-0.1298,-0.1294,-0.1295,-0.1296,-0.1296,-0.1336,-0.1337,0,0,0,0,0,0,-0.125,-0.1254,-0.1245,-0.1246,-0.1251,-0.126,-0.126,-0.1254,-0.1268,-0.1271,-0.1261,-0.1261,-0.1282,-0.1284,-0.1286,-0.1326,-0.1295,-0.1296,-0.1297,-0.1336,-0.1336,-0.1337,0,0,0,0,0,0,-0.125,-0.1249,-0.1244,-0.1251,-0.1251,-0.1259,-0.1253,-0.1254,-0.1275,-0.127,-0.1272,-0.1282,-0.1282,-0.1285,-0.1306,-0.1325,-0.1296,-0.1297,-0.1335,-0.1336,-0.1337,-0.1384,0,0,0,0,0,0,-0.1251,-0.1249,-0.1259,-0.125,-0.125,-0.1255,-0.1253,-0.1255,-0.1275,-0.1276,-0.1289,-0.129,-0.1282,-0.1304,-0.1307,-0.1326,-0.1298,-0.1334,-0.1335,-0.1336,-0.1381,-0.1386,-0.139,0,0,0,0,0,-0.1251,-0.1266,-0.1259,-0.1259,-0.1259,-0.1255,-0.1257,-0.1264,-0.1276,-0.1284,-0.1295,-0.129,-0.1312,-0.1306,-0.1308,-0.1329,-0.1334,-0.1335,-0.1336,-0.138,-0.1385,-0.139,0,0,0,0,0,0,-0.1279,-0.1268,-0.1261,-0.1271,-0.1264,-0.1257,-0.1277,-0.1277,-0.1293,-0.1306,-0.1301,-0.1303,-0.1321,-0.132,-0.1314,-0.1341,-0.1321,-0.1322,-0.1353,-0.1358,-0.1362,-0.1358,-0.1299,0,0,0,0,0,-0.1287,-0.1297,-0.1278,-0.1289,-0.1289,-0.1287,-0.1294,-0.1294,-0.13,-0.1308,-0.1312,-0.1321,-0.1325,-0.1339,-0.1336,-0.1363,-0.134,-0.1375,-0.1379,-0.1383,-0.138,-0.1367,-0.137,-0.1341,-0.1341,-0.1341,0,0,-0.1303,-0.1299,-0.1306,-0.1297,-0.1299,-0.1303,-0.1292,-0.1308,-0.132,-0.1309,-0.1339,-0.1333,-0.1332,-0.135,-0.136,-0.1358,-0.1378,-0.1384,-0.1388,-0.1383,-0.1369,-0.1372,-0.1374,-0.1341,-0.1341,-0.1341,0,0,-0.1326,-0.1333,-0.134,-0.134,-0.1341,-0.1338,-0.1345,-0.1342,-0.1352,-0.1373,-0.1362,-0.1368,-0.1388,-0.1381,-0.1384,-0.1412,-0.1391,-0.1418,-0.1451,-0.1439,-0.1441,-0.1443,-0.1411,-0.141,-0.1432,-0.1432,-0.1432,0,-0.1341,-0.1344,-0.1344,-0.1349,-0.1358,-0.1356,-0.1363,-0.1375,-0.138,-0.1387,-0.139,-0.1401,-0.14,-0.1414,-0.1423,-0.1422,-0.1406,-0.1435,-0.1444,-0.1445,-0.1446,-0.1414,-0.1411,-0.1434,-0.1434,-0.1434,-0.1434,0,-0.1352,-0.1369,-0.1379,-0.1383,-0.1394,-0.1405,-0.1409,-0.1426,-0.1442,-0.1443,-0.1458,-0.1451,-0.1455,-0.1458,-0.1455,-0.1464,-0.1446,-0.1442,-0.1432,-0.1452,-0.1416,-0.1413,-0.1438,-0.1437,-0.1436,-0.1436,0,0,-0.1332,-0.1375,-0.1379,-0.1391,-0.1412,-0.1416,-0.1453,-0.1463,-0.1484,-0.1494,-0.1507,-0.1517,-0.1508,-0.1508,-0.1498,-0.1496,-0.1488,-0.1483,-0.1481,-0.1452,-0.145,-0.1341,-0.1327,-0.1492,-0.1492,-0.1492,-0.142,0,-0.133,-0.1355,-0.1379,-0.1411,-0.1421,-0.1447,-0.1476,-0.1497,-0.1515,-0.1528,-0.1528,-0.1535,-0.1531,-0.1533,-0.1531,-0.1491,-0.1483,-0.1507,-0.1434,-0.1431,-0.1333,-0.1321,-0.1492,-0.1418,-0.1417,-0.1416,-0.1416,0,-0.1311,-0.1335,-0.1367,-0.142,-0.1427,-0.1453,-0.1495,-0.152,-0.1548,-0.1561,-0.1574,-0.1568,-0.1562,-0.1556,-0.1512,-0.153,-0.1497,-0.1467,-0.1464,-0.1342,-0.1316,-0.1394,-0.141,-0.141,-0.141,-0.1411,-0.1411,0,-0.1271,-0.1322,-0.1352,-0.1368,-0.1427,-0.1455,-0.1487,-0.1528,-0.1546,-0.1577,-0.1583,-0.1585,-0.1567,-0.1545,-0.1486,-0.1507,-0.1418,-0.1437,-0.1305,-0.1296,-0.1398,-0.1397,-0.1405,-0.1405,-0.1405,-0.1405,-0.1405,0,-0.1237,-0.1264,-0.1341,-0.1354,-0.1392,-0.1443,-0.1481,-0.1515,-0.1552,-0.1548,-0.1592,-0.1573,-0.1565,-0.1515,-0.1481,-0.1361,-0.1412,-0.1293,-0.1267,-0.1418,-0.142,-0.1395,-0.1395,-0.1402,-0.1403,-0.1403,-0.1404,0,-0.118,-0.1232,-0.1271,-0.1348,-0.1373,-0.14,-0.147,-0.1483,-0.1537,-0.1529,-0.1537,-0.1551,-0.148,-0.1445,-0.1377,-0.1324,-0.1244,-0.1192,-0.1331,-0.1317,-0.1136,-0.114,-0.1046,-0.1041,-0.1037,-0.1034,-0.1031,0,-0.1149,-0.1167,-0.1256,-0.1276,-0.1313,-0.1365,-0.1388,-0.146,-0.146,-0.1492,-0.146,-0.143,-0.1413,-0.1223,-0.1221,-0.1125,-0.1113,-0.1073,-0.113,-0.1114,-0.1098,-0.1108,-0.1116,-0.1025,-0.1024,-0.1023,-0.1022,0,-0.1089,-0.1135,-0.1166,-0.1209,-0.1243,-0.1271,-0.1305,-0.1296,-0.1346,-0.1413,-0.1335,-0.1287,-0.1195,-0.1136,-0.105,-0.0998,-0.1105,-0.1034,-0.1043,-0.1096,-0.1088,-0.1079,-0.1091,-0.1009,-0.1011,-0.1012,-0.1013,0,-0.1043,-0.105,-0.1096,-0.1119,-0.116,-0.1143,-0.1183,-0.1165,-0.1178,-0.1213,-0.1181,-0.1154,-0.117,-0.1067,-0.0998,-0.092,-0.092,-0.0904,-0.092,-0.0935,-0.0931,-0.0906,-0.0732,0,0,0,0,0,-0.0989,-0.098,-0.0998,-0.1006,-0.1039,-0.1053,-0.1103,-0.1139,-0.1189,-0.1094,-0.1132,-0.1045,-0.095,-0.0956,-0.0847,-0.0943,-0.092,-0.0815,-0.0912,-0.0935,-0.095,-0.0955,0,0,0,0,0,0,-0.0947,-0.0964,-0.0962,-0.0901,-0.0881,-0.0891,-0.0916,-0.0953,-0.0911,-0.0973,-0.0924,-0.0976,-0.0896,-0.0971,-0.0819,-0.0814,-0.0853,-0.0812,-0.0809,-0.0926,-0.094,-0.0952,-0.0962,0,0,0,0,0]},{"header":{"parameterUnit":"m.s-1","parameterCategory":2,"la1":30.2991,"la2":30.254,"lo1":-89.0895,"lo2":-89.0444,"dy":0.0017,"dx":0.0017,"nx":28,"ny":28,"refTime":"2025-05-26T03:00:00:Z","depth":"4","parameterNumber":3,"parameterNumberName":"V-component_of_CURRENTS"},"data":[0,0,0,0,0,0,0,0,0,0,0,0,0,0,0,0,0,0,0,0,0,0,0,0,0,0,0,0,0,0,0,0,0,0,0,0,0,0,0,0,0,0,0,0,0,0,0,0,0,0,0,0,0,0,0,0,0,0,-0.029,-0.029,0,-0.0259,-0.0259,-0.0259,-0.023,-0.0229,-0.0229,-0.0229,-0.0202,-0.0201,-0.0201,0,0,0,0,0,0,0,0,0,0,0,0,0,-0.0291,-0.0291,-0.029,-0.029,-0.0289,-0.026,-0.0259,-0.0259,-0.023,-0.0229,-0.0229,-0.0229,-0.0202,-0.0201,-0.0201,0,0,0,0,0,0,0,0,0,0,0,0,0,-0.0279,-0.0291,-0.029,-0.0271,-0.0269,-0.026,-0.0259,-0.0259,-0.023,-0.0229,-0.0229,-0.0228,-0.0202,-0.0202,-0.0201,-0.0209,0,0,-0.0199,-0.0199,0,0,0,0,0,0,0,0,-0.028,-0.0279,-0.0274,-0.0272,-0.027,-0.0248,-0.025,-0.0242,-0.023,-0.0245,-0.0229,-0.0228,-0.0218,-0.0216,-0.0212,-0.0208,-0.0207,-0.0199,-0.0199,-0.0199,-0.0199,0,0,0,0,0,0,0,-0.0281,-0.028,-0.0278,-0.0274,-0.0271,-0.0253,-0.0251,-0.0248,-0.0235,-0.0244,-0.0241,-0.0238,-0.0217,-0.0212,-0.0211,-0.0206,-0.0199,-0.0199,-0.0198,-0.0198,-0.0206,-0.0206,0,0,0,0,0,0,-0.0286,-0.0281,-0.0279,-0.0277,-0.0273,-0.0254,-0.0251,-0.0256,-0.0235,-0.0231,-0.0239,-0.0237,-0.0213,-0.0212,-0.021,-0.0202,-0.0199,-0.0198,-0.0198,-0.0205,-0.0206,-0.0207,0,0,0,0,0,0,-0.0287,-0.0287,-0.028,-0.0278,-0.0275,-0.0254,-0.0259,-0.0255,-0.0253,-0.0231,-0.0227,-0.024,-0.0213,-0.0211,-0.0207,-0.0201,-0.0198,-0.0197,-0.0205,-0.0205,-0.0206,-0.0196,0,0,0,0,0,0,-0.0287,-0.0287,-0.0293,-0.0278,-0.0276,-0.028,-0.026,-0.0255,-0.0251,-0.0249,-0.0231,-0.0228,-0.0212,-0.0208,-0.0206,-0.02,-0.0197,-0.0204,-0.0205,-0.0206,-0.0196,-0.0197,-0.0197,0,0,0,0,0,-0.0287,-0.0298,-0.0294,-0.0293,-0.0284,-0.028,-0.0277,-0.026,-0.0252,-0.0255,-0.024,-0.0229,-0.0213,-0.0208,-0.0206,-0.02,-0.0204,-0.0205,-0.0206,-0.0196,-0.0197,-0.0197,0,0,0,0,0,0,-0.0305,-0.0296,-0.0291,-0.0299,-0.0292,-0.0275,-0.0276,-0.0266,-0.0257,-0.0257,-0.0234,-0.023,-0.0229,-0.0222,-0.0216,-0.0208,-0.0207,-0.0208,-0.02,-0.0201,-0.0202,-0.0186,-0.0197,0,0,0,0,0,-0.0312,-0.0317,-0.0305,-0.0314,-0.0312,-0.0297,-0.0293,-0.0284,-0.0273,-0.0269,-0.0254,-0.0243,-0.0234,-0.0223,-0.0222,-0.0213,-0.0191,-0.021,-0.0211,-0.0211,-0.0199,-0.0159,-0.0153,-0.021,-0.021,-0.021,0,0,-0.0325,-0.0318,-0.0323,-0.0318,-0.0312,-0.0306,-0.0293,-0.0295,-0.0285,-0.0269,-0.0256,-0.0252,-0.0237,-0.0227,-0.0225,-0.0216,-0.0187,-0.0213,-0.0213,-0.02,-0.0159,-0.0153,-0.0148,-0.0211,-0.0211,-0.0211,0,0,-0.0347,-0.0345,-0.0354,-0.0346,-0.0338,-0.0324,-0.0327,-0.0314,-0.0302,-0.0296,-0.028,-0.0262,-0.0259,-0.0228,-0.0216,-0.022,-0.0202,-0.0236,-0.021,-0.0171,-0.0165,-0.016,-0.0134,-0.0126,-0.0223,-0.0223,-0.0223,0,-0.0362,-0.0368,-0.0357,-0.0356,-0.0349,-0.0333,-0.0336,-0.0319,-0.0305,-0.0291,-0.0295,-0.0264,-0.025,-0.0211,-0.021,-0.0217,-0.0204,-0.0204,-0.0169,-0.0163,-0.0157,-0.0132,-0.0124,-0.0223,-0.0223,-0.0223,-0.0223,0,-0.0384,-0.0386,-0.0391,-0.038,-0.0371,-0.0376,-0.0349,-0.0338,-0.0326,-0.0303,-0.028,-0.0256,-0.0229,-0.0226,-0.0215,-0.0172,-0.018,-0.0182,-0.016,-0.015,-0.0126,-0.0117,-0.0223,-0.0223,-0.0223,-0.0223,0,0,-0.0422,-0.0411,-0.0411,-0.041,-0.0385,-0.0384,-0.036,-0.0332,-0.0315,-0.0291,-0.0261,-0.0227,-0.0211,-0.0196,-0.0179,-0.0135,-0.0085,-0.0141,-0.0139,-0.0103,-0.0012,-0.004,-0.0033,-0.0084,-0.0082,-0.0081,-0.0013,0,-0.0443,-0.0454,-0.0435,-0.0437,-0.0437,-0.0405,-0.0384,-0.0353,-0.0323,-0.029,-0.024,-0.0219,-0.02,-0.0193,-0.0141,-0.0109,-0.0061,-0.0103,-0.0037,-0.0034,-0.005,-0.0023,-0.0075,-0.0006,-0.0004,-0.0003,-0.0002,0,-0.0464,-0.0467,-0.0481,-0.0464,-0.0461,-0.0458,-0.0421,-0.0401,-0.0336,-0.0313,-0.0259,-0.0227,-0.0156,-0.0153,-0.0052,-0.0086,-0.0043,-0.001,-0.0007,-0.0026,-0.0046,-0.0017,0.0014,0.0013,0.0012,0.0011,0.001,0,-0.0495,-0.0494,-0.051,-0.0504,-0.0483,-0.0482,-0.0469,-0.0414,-0.0397,-0.0327,-0.031,-0.022,-0.019,-0.0111,-0.0036,-0.0045,0.0066,0.0062,0.0084,0.0081,0.0083,0.0077,0.0145,0.0145,0.0144,0.0144,0.0144,0,-0.0515,-0.0527,-0.0533,-0.054,-0.0556,-0.0524,-0.0524,-0.0489,-0.0442,-0.0422,-0.0333,-0.0301,-0.018,-0.0103,-0.0031,0.0051,0.0075,0.01,0.0105,0.0081,0.0074,0.0089,0.0082,0.0147,0.0146,0.0146,0.0145,0,-0.054,-0.0545,-0.0565,-0.0568,-0.0574,-0.0586,-0.0579,-0.057,-0.0521,-0.049,-0.0473,-0.0359,-0.0255,-0.0135,-0.0006,0.0043,0.0131,0.0155,0.0119,0.0117,0.0121,0.0113,0.0194,0.0193,0.0193,0.0193,0.0193,0,-0.0552,-0.0568,-0.0599,-0.0623,-0.0631,-0.0647,-0.0655,-0.0617,-0.0602,-0.0531,-0.0517,-0.0408,-0.0324,-0.0149,-0.0032,0.0121,0.0134,0.0175,0.0163,0.0134,0.013,0.0122,0.0115,0.0192,0.0192,0.0192,0.0192,0,-0.0573,-0.0594,-0.0615,-0.0668,-0.0697,-0.0714,-0.0721,-0.0712,-0.066,-0.0628,-0.0541,-0.0433,-0.0313,-0.016,-0.0038,0.0065,0.0148,0.0173,0.0174,0.0163,0.0133,0.0128,0.0121,0.0192,0.0192,0.0192,0.0192,0,-0.0595,-0.0623,-0.0664,-0.0704,-0.0747,-0.0763,-0.0758,-0.0729,-0.0704,-0.0614,-0.0595,-0.0448,-0.0357,-0.0191,-0.0085,0.0024,0.0047,0.0068,0.0075,0.0077,0.0019,-0.0038,-0.0015,0,0,0,0,0,-0.0611,-0.0648,-0.0693,-0.074,-0.0782,-0.0802,-0.0793,-0.0772,-0.0727,-0.0671,-0.0625,-0.0508,-0.0327,-0.0241,-0.0135,-0.01,0.0055,0.0024,0.0079,0.0187,0.0188,0.0138,0,0,0,0,0,0,-0.0627,-0.0678,-0.0699,-0.076,-0.0798,-0.0835,-0.0827,-0.0793,-0.0741,-0.0683,-0.0574,-0.0518,-0.0328,-0.0396,-0.0147,-0.0114,-0.0072,0.0115,0.0116,0.0187,0.0188,0.0188,0.0137,0,0,0,0,0]}]]